This demonstration page uses our WeatherBlox Daily Observations layout. Learn more.

Left ArrowRight Arrow

Hourly Observations for December 9, 2018

Temp ( °F °C ) Dew Point ( °F °C ) Humidity (%) Winds ( mph kmh ) Pressure ( in mb ) Visibility ( mi km ) Precip ( " mm )
12:15 am 00:15 Clear 17 -8.2 14 -10 87 87 ENE 6 9 30.50 1033 10 16 0.00 0.00
12:35 am 00:35 Clear 17 -8.3 14 -10.1 87 87 ENE 6 9 30.50 1033 10 16 0.00 0.00
12:55 am 00:55 Clear 17 -8.5 14 -10.1 88 88 ENE 5 7 30.50 1033 10 16 0.00 0.00
1:15 am 01:15 Clear 16 -9 13 -10.5 89 89 ENE 6 9 30.50 1033 10 16 0.00 0.00
1:35 am 01:35 Clear 15 -9.2 13 -10.6 90 90 ENE 5 7 30.48 1032 10 16 0.00 0.00
1:55 am 01:55 Clear 15 -9.2 13 -10.6 90 90 ENE 6 9 30.48 1032 10 16 0.00 0.00
2:15 am 02:15 Clear 15 -9.5 13 -10.7 91 91 ENE 6 9 30.48 1032 10 16 0.00 0.00
2:35 am 02:35 Clear 15 -9.5 13 -10.7 91 91 ENE 6 9 30.48 1032 10 16 0.00 0.00
2:55 am 02:55 Clear 15 -9.5 12 -10.9 90 90 ENE 6 9 30.48 1032 10 16 0.00 0.00
3:15 am 03:15 Clear 14 -9.8 12 -11 91 91 ENE 6 9 30.48 1032 10 16 0.00 0.00
3:35 am 03:35 Clear 14 -10.1 12 -11.2 92 92 ENE 5 7 30.45 1031 10 16 0.00 0.00
3:55 am 03:55 Clear 14 -10.2 12 -11.2 92 92 NE 6 9 30.45 1031 10 16 0.00 0.00
4:15 am 04:15 Clear 14 -10.2 12 -11.2 92 92 NE 7 11 30.45 1031 10 16 0.00 0.00
4:35 am 04:35 Clear 15 -9.7 12 -11 90 90 NE 7 11 30.45 1031 10 16 0.00 0.00
4:55 am 04:55 Clear 15 -9.7 12 -11 90 90 ENE 5 7 30.42 1030 10 16 0.00 0.00
5:15 am 05:15 Clear 15 -9.6 12 -11 90 90 ENE 5 7 30.42 1030 10 16 0.00 0.00
5:35 am 05:35 Clear 14 -10 11 -11.4 90 90 NE 5 7 30.42 1030 10 16 0.00 0.00
5:55 am 05:55 Clear 11 -11.6 9 -12.6 92 92 NNE 5 7 30.42 1030 10 16 0.00 0.00
6:15 am 06:15 Clear 10 -12 9 -12.8 94 94 NNE 6 9 30.42 1030 10 16 0.00 0.00
6:35 am 06:35 Clear 10 -12 9 -12.8 94 94 NNE 6 9 30.42 1030 10 16 0.00 0.00
6:55 am 06:55 Clear 13 -10.8 11 -11.9 92 92 NNE 7 11 30.42 1030 10 16 0.00 0.00
7:15 am 07:15 Clear 13 -10.7 11 -11.7 92 92 NE 7 11 30.42 1030 10 16 0.00 0.00
7:35 am 07:35 Clear 13 -10.3 11 -11.5 91 91 NE 8 13 30.42 1030 10 16 0.00 0.00
7:55 am 07:55 Clear 13 -10.5 11 -11.7 91 91 NNE 9 15 30.42 1030 10 16 0.00 0.00
8:15 am 08:15 Sunny 14 -10.2 11 -11.5 90 90 NNE 10 17 30.42 1030 10 16 0.00 0.00
8:35 am 08:35 Sunny 13 -10.6 11 -11.9 90 90 N 6 9 30.42 1030 10 16 0.00 0.00
8:55 am 08:55 Sunny 13 -10.7 11 -11.7 92 92 NNE 7 11 30.42 1030 10 16 0.00 0.00
9:15 am 09:15 Sunny 13 -10.5 11 -11.6 92 92 NNE 8 13 30.42 1030 10 16 0.00 0.00
9:35 am 09:35 Sunny 14 -10 12 -11.1 92 92 NNE 7 11 30.39 1029 10 16 0.00 0.00
9:55 am 09:55 Sunny 16 -8.7 13 -10.3 88 88 NE 6 9 30.42 1030 10 16 0.00 0.00
10:15 am 10:15 Sunny 17 -8.4 13 -10.3 86 86 NE 9 15 30.42 1030 10 16 0.00 0.00
10:35 am 10:35 Sunny 19 -7.5 15 -9.5 86 86 NE 8 13 30.39 1029 10 16 0.00 0.00
10:55 am 10:55 Sunny 20 -6.6 16 -8.9 84 84 NE 10 17 30.39 1029 10 16 0.00 0.00
11:15 am 11:15 Sunny 22 -5.7 17 -8.2 83 83 NE 8 13 30.39 1029 10 16 0.00 0.00
11:35 am 11:35 Sunny 24 -4.7 19 -7.4 82 82 NE 7 11 30.39 1029 10 16 0.00 0.00
11:55 am 11:55 Sunny 25 -4 19 -7.3 78 78 NE 10 17 30.39 1029 10 16 0.00 0.00
12:15 pm 12:15 Sunny 26 -3.5 19 -7.3 75 75 NE 9 15 30.36 1028 10 16 0.00 0.00
12:35 pm 12:35 Sunny 27 -2.9 20 -6.8 75 75 ENE 8 13 30.36 1028 10 16 0.00 0.00
12:55 pm 12:55 Sunny 28 -2.5 20 -6.6 74 74 NE 8 13 30.36 1028 10 16 0.00 0.00
1:15 pm 13:15 Sunny 28 -2.2 20 -6.8 71 71 NE 7 11 30.36 1028 10 16 0.00 0.00
1:35 pm 13:35 Sunny 28 -2.3 21 -6.1 75 75 N 8 13 30.36 1028 10 16 0.00 0.00
1:55 pm 13:55 Sunny 28 -2.5 21 -6.3 75 75 NNE 8 13 30.33 1027 10 16 0.00 0.00
2:15 pm 14:15 Sunny 28 -2 20 -6.4 72 72 NNE 10 17 30.33 1027 10 16 0.00 0.00
2:35 pm 14:35 Sunny 28 -2 20 -6.6 71 71 NNE 10 17 30.33 1027 10 16 0.00 0.00
2:55 pm 14:55 Sunny 29 -1.7 22 -5.8 74 74 NNE 8 13 30.33 1027 10 16 0.00 0.00
3:15 pm 15:15 Sunny 29 -1.7 21 -6.1 72 72 NNE 8 13 30.33 1027 10 16 0.00 0.00
3:35 pm 15:35 Sunny 29 -1.8 21 -6 73 73 N 9 15 30.33 1027 10 16 0.00 0.00
3:55 pm 15:55 Sunny 28 -2 22 -5.8 76 76 N 10 17 30.33 1027 10 16 0.00 0.00
4:15 pm 16:15 Sunny 28 -2 21 -6 74 74 N 9 15 30.33 1027 10 16 0.00 0.00
4:35 pm 16:35 Sunny 28 -2.4 21 -6 77 77 N 8 13 30.33 1027 10 16 0.00 0.00
4:55 pm 16:55 Sunny 27 -2.7 21 -6.3 77 77 NNE 7 11 30.30 1026 10 16 0.00 0.00
5:15 pm 17:15 Sunny 26 -3.6 19 -7 78 78 N 7 11 30.30 1026 10 16 0.00 0.00
5:35 pm 17:35 Clear 25 -3.9 19 -7.1 79 79 N 7 11 30.30 1026 10 16 0.00 0.00
5:55 pm 17:55 Clear 24 -4.6 19 -7.5 80 80 N 6 9 30.30 1026 10 16 0.00 0.00
6:15 pm 18:15 Clear 23 -5.2 18 -8 81 81 N 6 9 30.33 1027 10 16 0.00 0.00
6:35 pm 18:35 Clear 22 -5.3 18 -7.9 82 82 N 6 9 30.33 1027 10 16 0.00 0.00
6:55 pm 18:55 Clear 22 -5.4 19 -7.5 85 85 N 5 7 30.33 1027 10 16 0.00 0.00
7:15 pm 19:15 Clear 22 -5.4 18 -7.9 83 83 N 3 6 30.33 1027 10 16 0.00 0.00
7:35 pm 19:35 Clear 22 -5.4 19 -7.4 86 86 N 5 7 30.33 1027 10 16 0.00 0.00
7:55 pm 19:55 Clear 19 -7.1 17 -8.2 92 92 N 5 7 30.33 1027 10 16 0.00 0.00
8:15 pm 20:15 Clear 17 -8.2 15 -9.2 93 93 N 5 7 30.33 1027 10 16 0.00 0.00
8:35 pm 20:35 Clear 18 -7.7 16 -8.7 93 93 N 5 7 30.33 1027 10 16 0.00 0.00
8:55 pm 20:55 Clear 20 -6.4 18 -7.8 90 90 N 5 7 30.33 1027 10 16 0.00 0.00
9:15 pm 21:15 Clear 20 -6.5 18 -8 89 89 N 5 7 30.33 1027 10 16 0.00 0.00
9:35 pm 21:35 Clear 19 -7.1 17 -8.4 91 91 N 6 9 30.33 1027 10 16 0.00 0.00
9:55 pm 21:55 Clear 18 -7.9 15 -9.4 89 89 N 6 9 30.33 1027 10 16 0.00 0.00
10:15 pm 22:15 Clear 14 -10 13 -10.7 95 95 N 6 9 30.36 1028 10 16 0.00 0.00
10:35 pm 22:35 Clear 17 -8.5 15 -9.4 93 93 N 6 9 30.33 1027 10 16 0.00 0.00
10:55 pm 22:55 Clear 18 -7.9 15 -9.4 89 89 N 6 9 30.33 1027 10 16 0.00 0.00
11:15 pm 23:15 Clear 16 -9 15 -9.6 95 95 N 3 6 30.36 1028 10 16 0.00 0.00
11:35 pm 23:35 Clear 18 -8 16 -8.8 94 94 N 3 6 30.33 1027 10 16 0.00 0.00
11:55 pm 23:55 Clear 17 -8.1 17 -8.6 96 96 N 6 9 30.33 1027 10 16 0.00 0.00

Powered by AerisWeather